Location: Newark
(42.8481°N, 0.4872°E)
Time: 16:36:26
(UTC+00:00)

Vanguard 3 - Pass Details

Date: 02 November 2020
Orbit: 508 x 3262 km, 33.3° (Epoch: 28 November)

Event Time Altitude Azimuth Distance (km) Brightness Sun altitude
Rises 00:48:04 0° 171° (S) 4,977 - -58.6°
Reaches altitude 10° 00:54:35 10° 143° (SE) 4,674 - -57.9°
Maximum altitude 00:58:45 12° 125° (SE) 4,893 - -57.5°
Exits shadow 00:59:05 12° 123° (ESE) 4,921 11.1 -57.4°
Drops below altitude 10° 01:03:27 10° 107° (ESE) 5,429 11.4 -57.0°
Sets 01:12:59 0° 83° (E) 6,990 12.3 -55.8°
